PROFILE

 METAR AND TAF INFORMATION
ADDS - METARS form results

(0617 UTC 22 September 2019)
http://aviationweather.gov/metar/data/
 
LXGB 220550Z 22006KT 9999 FEW020 SCT200 22/19 Q1015 RMK BLU
TAF LXGB 220458Z 2206/2215 24012KT 9999 BKN025 PROB30 TEMPO 2206/2208 7000 HZ SCT012 PROB30 TEMPO 2211/2215 SCT022 

 AIRPORT MAP

 RUNWAY INFORMATION
Runway 09 Runway length 6000 ft Runway width 150 ft
Runway elevation 10 ft Runway displaced threshold 302 ft Runway heading 88
Runway 27 Runway length 6000 ft Runway width 150 ft
Runway elevation 11 ft Runway displaced threshold 368 ft Runway heading 268

 AIRPORT FREQUENCIES
Type A/D Name APP Frequency 122.8 MHZ
Type OPS Name GIB TALKDO Frequency 130.4 MHZ
Type TWR Name TWR Frequency 131.2 MHZ

 AIRPORT NEAR NAVIGATION AIDS
Type TACAN Name Gibraltar Frequency 113600 KHZ